Location: Northcutt
(34.7304°N, 84.4305°W)
Time: 17:38:21
(UTC+00:00)

SR - Pass Details

Date: 07 October 2022
Orbit: 577 x 874 km, 66.7° (Epoch: 05 December)

Event Time Altitude Azimuth Distance (km) Brightness Sun altitude
Rises 10:17:38 0° 337° (NNW) 3,274 ? -17.1°
Reaches altitude 10° 10:20:12 10° 342° (NNW) 2,295 ? -16.6°
Maximum altitude 10:25:20 55° 60° (ENE) 851 ? -15.5°
Drops below altitude 10° 10:29:59 10° 139° (SE) 2,088 ? -14.6°
Sets 10:32:14 0° 143° (SE) 2,953 ? -14.1°
